Location: Carri�res
(48.9069°N, 2.1792°E)
Time: 13:04:05
(UTC+00:00)

Cosmos 1025 Rocket - Pass Details

Date: 17 January 2021
Orbit: 594 x 618 km, 82.5° (Epoch: 26 February)

Event Time Altitude Azimuth Distance (km) Brightness Sun altitude
Rises 17:25:29 0° 201° (SSW) 2,842 7.1 -9.7°
Reaches altitude 10° 17:27:44 10° 206° (SSW) 1,947 6.3 -10.1°
Maximum altitude 17:31:56 52° 283° (WNW) 761 3.9 -10.7°
Drops below altitude 10° 17:36:13 10° 1° (N) 1,978 5.5 -11.4°
Sets 17:38:31 0° 6° (N) 2,891 6.3 -11.7°
